Regional Weather Roundup
Issued by NWS Sioux Falls, SD

Home | Current Version | Previous Version | Graphics & Text | Print | Product List | Glossary Off
Versions: 1 2 3 4 5 6 7 8 9 10 11 12 13 14 15 16 17 18 19 20 21 22 23 24 25 26 27 28 29 30 31 32 33 34 35 36 37 38 39 40 41 42 43 44 45 46 47 48 49 50

000
ASUS43 KFSD 281410
RWRFSD

WEATHER ROUNDUP FOR SE SOUTH DAKOTA/SW MINNESOTA/NW IOWA
NATIONAL WEATHER SERVICE SIOUX FALLS SD
900 AM CDT TUE JUL 28 2015

NOTE: "FAIR" INDICATES FEW OR NO CLOUDS BELOW 12,000 FEET WITH NO
SIGNIFICANT WEATHER AND OR OBSTRUCTIONS TO VISIBILITY.


SDZ038>040-050-052>070-281500-
SOUTHEAST SOUTH DAKOTA

CITY           SKY/WX    TMP DP  RH WIND       PRES   REMARKS
BROOKINGS      CLOUDY    70  66  88 S12G21    29.84R
CHAMBERLAIN    SUNNY     64  56  76 NW20G29   29.90R
HURON          CLOUDY    70  67  90 W8        29.83R
MADISON        CLOUDY    72  72 100 S16G22    29.84R
MITCHELL       CLOUDY    71  68  90 W7        29.85R
SIOUX FALLS    CLOUDY    73  67  81 S13       29.81F
WINNER         FAIR      65  54  67 NW21G28   29.93R
YANKTON        CLOUDY    77  68  73 MISG      29.83F
$$

MNZ071-072-080-081-089-090-097-098-281500-
SOUTHWEST MINNESOTA

CITY           SKY/WX    TMP DP  RH WIND       PRES   REMARKS
FAIRMONT       CLOUDY    70  63  78 SE7       29.76R
JACKSON        CLOUDY    70  68  94 SW9       29.83R
LUVERNE        CLOUDY    70  66  88 S7        29.82F
MARSHALL       CLOUDY    72  63  73 SW15G23   29.78R
MONTEVIDEO     CLOUDY    70  70 100 W7        29.79R
PIPESTONE      CLOUDY    70  66  88 SW14G20   29.82F
REDWOOD FALLS  CLOUDY    70  65  84 S10       29.74R
TRACY          CLOUDY    70  66  88 SW17G23   29.78R
WINDOM         CLOUDY    70  66  88 SW10G17   29.80R
WORTHINGTON    CLOUDY    70  64  83 SW15      29.82F
$$

IAZ001>003-012>014-020>022-031-032-NEZ013-014-SDZ071-281500-
NORTHWEST IOWA

CITY           SKY/WX    TMP DP  RH WIND       PRES   REMARKS
CHEROKEE       CLOUDY    67  67 100 S6        29.83F
DENISON        CLOUDY    68  68 100 E17       29.84F
ESTHERVILLE    CLOUDY    70  69  97 S15G21    29.83R
LE MARS        CLOUDY    70  68  94 S5        29.82S
ORANGE CITY    CLOUDY    68  64  88 CALM      29.82F
SHELDON        CLOUDY    68  66  94 CALM      29.80F
SIOUX CITY     CLOUDY    72  68  87 SE7       29.81F
SPENCER        CLOUDY    70  66  87 S13       29.82F
STORM LAKE     CLOUDY    66  66 100 S10G17    29.86F
$$

ABBREVIATIONS USED IN REMARKS
   TC - TEMPERATURE IN CELSIUS
  WCI - WIND CHILL INDEX
   HX - HEAT INDEX
  VSB - VISIBILITY




USA.gov is the U.S. government's official web portal to all federal, state and local government web resources and services.